Starlink 32227

operational
NORAD ID: 60361 Int'l Des: 2024-138 Owner: SPXS Country: US Constellation: starlink
LEOCIRCULAR

Starlink 32227について

説明を読み込み中...

リアルタイム位置

3D地球を読み込み中...

次回通過

高度履歴

Altitude vs Time

uPlot chart will show altitude changes over time

軌道要素

1 60361U 24138G 25260.66897042 .00000402 00000-0 25705-4 0 9990
2 60361 53.1617 33.5215 0001016 78.9368 281.1747 15.30198387 64149
Epoch: Sep 17, 2025 • Age: 25 hours

現在のステータス

高度 493.7 km
速度 7.62 km/s
衛星直下点 -51.26°S, 28.85°E
打ち上げ日 Aug 4, 2024
運用期間 1.1 years
タイプ internet

技術仕様

分類 Payload
質量 730.00 kg
乾燥質量 700.00 kg
総質量 730.00 kg
長さ 0.30 m
直径 4.10 m
スパン 29.00 m
形状 Box + pan
製造者 SPXS
バスタイプ Starlink V2M
フェーズステータス In Orbit
所有者/国 SPXS/US

大規模コンステレーション

Loading constellations...